FW5248 Weather Reports


time (UTC)temp
F
wind
direction
speed
knots
gust
knots
rain 1hr
in
rain 24hr
in
rain mn
in
humidity
%
barometer
mb
20260507234820 56 222 0.9 2.6 0.00 0.14 0.04 83 1013.3
20260507234320 56 222 1.7 2.6 0.00 0.14 0.04 83 1013.4
20260507233819 56 228 1.7 3.5 0.00 0.14 0.04 83 1013.3
20260507233318 56 228 1.7 3.5 0.00 0.14 0.04 84 1013.3
20260507232820 56 224 1.7 4.3 0.00 0.14 0.04 84 1013.4
20260507232317 56 238 1.7 4.3 0.00 0.14 0.04 83 1013.4
20260507231815 56 234 2.6 6.1 0.00 0.14 0.04 83 1013.5
20260507231313 57 199 1.7 6.1 0.00 0.14 0.04 82 1013.4
20260507230818 57 236 1.7 4.3 0.00 0.14 0.04 82 1013.4
20260507230759 57 239 0.9 4.3 0.00 0.14 0.04 82 1013.5
20260507230050 57 195 0.9 3.5 0.00 0.14 0.04 82 1013.4
20260507225539 57 241 0.9 3.5 0.00 0.14 0.04 82 1013.4
20260507224814 57 194 1.7 3.5 0.00 0.14 0.04 82 1013.5
20260507224313 57 235 2.6 5.2 0.00 0.14 0.04 82 1013.5
20260507223814 57 215 2.6 5.2 0.00 0.14 0.04 82 1013.5
20260507223313 57 234 3.5 5.2 0.00 0.14 0.04 82 1013.4
20260507222814 57 197 3.5 6.1 0.00 0.14 0.04 82 1013.3
20260507222313 57 212 3.5 6.1 0.00 0.14 0.04 81 1013.2
20260507221813 57 232 3.5 6.1 0.00 0.14 0.04 82 1013.1
20260507221312 57 211 4.3 6.1 0.00 0.14 0.04 82 1013.2
20260507220811 57 200 3.5 6.1 0.00 0.14 0.04 81 1013.2
20260507220308 58 212 1.7 6.1 0.00 0.14 0.04 81 1013.1
20260507220302 58 216 0.9 4.3 0.00 0.14 0.04 81 1013.1
20260507215539 58 219 1.7 4.3 0.00 0.14 0.04 80 1013.0
20260507214804 58 262 2.6 5.2 0.00 0.14 0.04 80 1013.0
20260507214306 58 199 1.7 5.2 0.00 0.14 0.04 81 1013.0
20260507213804 58 242 2.6 5.2 0.00 0.14 0.04 81 1013.0
20260507213303 58 239 2.6 6.1 0.00 0.14 0.04 81 1012.9
20260507212804 58 204 3.5 6.1 0.00 0.14 0.04 82 1012.9
20260507212753 58 196 3.5 7.0 0.00 0.14 0.04 84 1012.8
20260507212455 57 176 4.3 7.8 0.00 0.14 0.04 84 1012.9
20260507211258 57 205 3.5 7.8 0.00 0.14 0.04 85 1013.0
20260507210759 56 174 2.6 5.2 0.00 0.14 0.04 86 1012.8
20260507210302 56 183 1.7 5.2 0.00 0.14 0.04 87 1012.8
20260507210024 55 147 1.7 4.3 0.00 0.14 0.04 88 1012.8
20260507205306 55 191 2.6 4.3 0.00 0.14 0.04 87 1012.8
20260507204755 55 216 2.6 4.3 0.00 0.14 0.04 87 1012.8
20260507204520 54 143 2.6 4.3 0.00 0.14 0.04 87 1012.8
20260507203755 54 205 1.7 4.3 0.00 0.14 0.04 87 1012.9
20260507203519 54 240 1.7 4.3 0.00 0.14 0.04 87 1013.0
20260507202752 54 247 1.7 3.5 0.00 0.14 0.04 86 1013.0
20260507202248 54 253 1.7 3.5 0.00 0.14 0.04 86 1013.0
20260507201742 54 239 2.6 4.3 0.00 0.14 0.04 86 1013.0
20260507201238 54 232 2.6 6.1 0.00 0.14 0.04 87 1013.0
20260507200738 54 273 1.7 6.1 0.00 0.14 0.04 86 1013.0
20260507200239 54 261 0.9 3.5 0.00 0.14 0.04 88 1012.9
20260507195740 54 212 1.7 4.3 0.00 0.14 0.04 87 1012.9
20260507195500 54 251 2.6 4.3 0.00 0.14 0.04 87 1013.0
20260507194739 54 213 2.6 4.3 0.00 0.14 0.04 87 1013.0
20260507194503 54 237 2.6 4.3 0.00 0.14 0.04 87 1012.9
20260507193738 54 258 2.6 3.5 0.00 0.14 0.04 86 1012.9
20260507193515 54 230 1.7 3.5 0.00 0.14 0.04 87 1012.8
20260507192738 54 227 1.7 3.5 0.00 0.14 0.04 88 1012.8
20260507192238 53 232 1.7 2.6 0.00 0.14 0.04 88 1013.0
20260507191954 53 240 2.6 3.5 0.00 0.14 0.04 87 1013.0
20260507191239 53 270 2.6 4.3 0.00 0.14 0.04 87 1013.1
20260507190740 53 255 0.9 4.3 0.00 0.14 0.04 89 1013.1
20260507190237 53 258 0.9 3.5 0.00 0.14 0.04 88 1013.1
20260507185959 53 246 0.9 3.5 0.00 0.14 0.04 89 1013.1
20260507185235 53 241 1.7 3.5 0.00 0.14 0.04 89 1013.3
20260507185005 53 250 0.9 5.2 0.00 0.14 0.04 91 1013.4
20260507184849 53 259 1.7 5.2 0.00 0.14 0.04 90 1013.4
20260507183735 52 257 0.9 3.5 0.00 0.14 0.04 91 1013.4
20260507183236 52 221 1.7 4.3 0.00 0.14 0.04 91 1013.4
20260507183005 52 283 1.7 4.3 0.00 0.14 0.04 92 1013.5
20260507182234 52 268 0.9 2.6 0.00 0.14 0.04 93 1013.4
20260507181734 52 325 1.7 3.5 0.00 0.14 0.04 92 1013.4
20260507181233 52 309 1.7 4.3 0.00 0.14 0.04 92 1013.5
20260507180732 52 354 1.7 4.3 0.00 0.14 0.04 92 1013.5
20260507180233 52 240 1.7 4.3 0.00 0.14 0.04 92 1013.5
20260507180006 52 291 2.6 6.1 0.00 0.14 0.04 93 1013.5
20260507175234 52 356 3.5 7.0 0.00 0.14 0.04 92 1013.5
20260507174733 52 324 4.3 7.8 0.00 0.14 0.04 91 1013.6
20260507174233 52 289 4.3 8.7 0.00 0.14 0.04 91 1013.5
20260507173734 52 346 4.3 8.7 0.00 0.14 0.04 91 1013.5
20260507173233 52 304 4.3 8.7 0.00 0.14 0.04 91 1013.5
20260507172733 52 282 3.5 7.8 0.00 0.14 0.04 91 1013.3
20260507172457 52 275 2.6 5.2 0.00 0.14 0.04 92 1013.1
20260507171732 52 348 2.6 5.2 0.00 0.14 0.04 92 1013.1
20260507171230 52 273 2.6 6.1 0.00 0.14 0.04 92 1013.2
20260507170732 52 335 2.6 6.1 0.00 0.14 0.04 92 1013.1
20260507170234 52 264 3.5 7.0 0.00 0.14 0.04 93 1013.0
20260507165733 52 1 3.5 7.0 0.00 0.14 0.04 92 1013.1
20260507165233 52 301 2.6 5.2 0.00 0.14 0.04 93 1012.9
20260507164732 53 317 3.5 7.0 0.00 0.14 0.04 92 1013.1
20260507164230 53 301 3.5 7.8 0.00 0.14 0.04 92 1013.2
20260507163731 52 351 3.5 7.8 0.00 0.14 0.04 93 1013.1
20260507163230 52 343 3.5 7.8 0.00 0.14 0.04 92 1013.0
20260507162728 52 345 3.5 7.8 0.00 0.14 0.04 92 1013.1
20260507162228 52 286 2.6 6.1 0.00 0.14 0.04 92 1013.1
20260507161728 52 293 1.7 6.1 0.00 0.14 0.04 92 1013.1
20260507161228 52 306 1.7 4.3 0.00 0.14 0.04 92 1013.1
20260507160726 52 259 2.6 5.2 0.00 0.15 0.04 92 1013.0
20260507160458 52 347 4.3 7.8 0.00 0.15 0.04 92 1013.1
20260507155723 52 356 4.3 7.8 0.00 0.16 0.04 92 1013.2
20260507155223 52 353 4.3 7.8 0.00 0.16 0.04 92 1013.0
20260507154723 52 333 5.2 7.8 0.00 0.16 0.04 93 1012.9
20260507154223 52 321 4.3 8.7 0.00 0.17 0.04 93 1013.0
20260507153952 52 330 3.5 8.7 0.00 0.17 0.04 93 1012.8
20260507153709 52 347 3.5 7.8 0.00 0.17 0.04 94 1012.8
20260507152718 52 344 3.5 7.8 0.00 0.17 0.04 93 1012.8
20260507152709 52 331 5.2 10.4 0.00 0.17 0.04 94 1012.8
20260507151717 52 5 6.1 10.4 0.00 0.17 0.04 94 1012.8
20260507151214 52 324 4.3 10.4 0.00 0.17 0.04 93 1012.9
20260507150714 52 336 4.3 8.7 0.00 0.17 0.04 94 1012.8
20260507150215 52 3 4.3 8.7 0.00 0.17 0.04 94 1012.6
20260507145715 52 8 4.3 8.7 0.00 0.17 0.04 94 1012.8
20260507145215 52 18 4.3 8.7 0.00 0.17 0.04 94 1012.6
20260507144714 52 7 4.3 9.6 0.00 0.17 0.04 94 1012.6
20260507144215 52 338 5.2 11.3 0.00 0.17 0.04 94 1012.7
20260507143719 52 297 6.1 13.9 0.00 0.17 0.04 94 1012.8
20260507143221 52 303 7.0 13.9 0.00 0.17 0.04 94 1012.6
20260507142719 52 351 6.1 11.3 0.00 0.17 0.04 94 1012.4
20260507142219 53 316 5.2 10.4 0.00 0.17 0.04 94 1012.4
20260507141718 53 348 4.3 9.6 0.00 0.17 0.04 94 1012.3
20260507141444 54 328 3.5 7.0 0.00 0.17 0.04 95 1012.3
20260507140715 54 337 2.6 5.2 0.00 0.17 0.04 94 1012.2
20260507140211 54 328 2.6 5.2 0.00 0.17 0.04 94 1012.4
20260507135935 54 2 3.5 8.7 0.00 0.17 0.04 94 1012.3
20260507135436 54 336 3.5 8.7 0.00 0.17 0.04 94 1012.6
20260507134710 54 345 2.6 7.0 0.00 0.17 0.04 94 1012.3
20260507134210 54 328 2.6 7.0 0.00 0.17 0.04 94 1012.3
20260507133709 54 334 2.6 7.0 0.00 0.17 0.04 95 1012.0
20260507133209 54 341 2.6 8.7 0.00 0.17 0.04 95 1012.0
20260507132710 54 351 2.6 8.7 0.00 0.17 0.04 94 1012.0
20260507132210 54 350 1.7 5.2 0.00 0.17 0.04 94 1012.0
20260507131709 54 302 2.6 6.1 0.00 0.17 0.04 94 1012.2
20260507131209 54 359 1.7 6.1 0.00 0.17 0.04 94 1012.3
20260507130710 54 344 1.7 5.2 0.00 0.17 0.04 94 1012.3
20260507130209 54 299 2.6 5.2 0.00 0.17 0.04 95 1012.3
20260507125930 54 314 2.6 5.2 0.00 0.18 0.04 94 1012.3
20260507125207 54 337 2.6 6.1 0.00 0.19 0.04 95 1012.2
20260507124707 54 304 2.6 6.1 0.01 0.20 0.04 95 1012.2
20260507124208 54 311 1.7 4.3 0.01 0.21 0.04 95 1012.1
20260507123709 54 277 2.6 7.0 0.01 0.21 0.04 95 1011.8
20260507123208 54 336 3.5 7.0 0.01 0.21 0.04 95 1011.5
20260507122708 54 356 2.6 6.1 0.01 0.21 0.04 95 1011.7
20260507122208 54 353 2.6 3.5 0.02 0.21 0.04 95 1011.8
20260507121932 54 330 1.7 3.5 0.02 0.21 0.04 95 1011.8
20260507121211 54 325 1.7 3.5 0.02 0.21 0.04 94 1011.9
20260507120708 54 351 0.9 3.5 0.02 0.22 0.04 95 1012.2
20260507120207 54 14 0.9 3.5 0.02 0.22 0.04 95 1012.0
20260507115706 54 4 0.9 2.6 0.02 0.23 0.04 95 1012.3
20260507115426 54 16 0.9 2.6 0.02 0.23 0.04 94 1012.3
20260507114703 54 295 1.7 3.5 0.01 0.22 0.03 94 1012.7
20260507114203 54 293 1.7 3.5 0.01 0.22 0.03 94 1012.4
20260507113926 54 307 1.7 3.5 0.01 0.22 0.03 94 1012.3
20260507113204 54 296 1.7 4.3 0.01 0.22 0.03 94 1012.3
20260507112702 54 272 1.7 4.3 0.01 0.22 0.03 94 1012.3
20260507112202 54 262 0.9 4.3 0.00 0.21 0.02 94 1012.1
20260507111932 54 304 1.7 4.3 0.00 0.21 0.02 94 1012.0
20260507111203 54 343 1.7 4.3 0.00 0.21 0.02 94 1011.9
20260507110703 54 25 2.6 7.0 0.00 0.21 0.02 95 1011.8
20260507110202 54 307 2.6 7.0 0.00 0.21 0.02 95 1011.8
20260507105704 55 11 1.7 4.3 0.00 0.21 0.02 95 1011.7
20260507105203 55 359 1.7 4.3 0.00 0.21 0.02 94 1011.5
20260507104711 55 311 2.6 3.5 0.00 0.21 0.02 94 1011.4
20260507104209 55 321 3.5 7.8 0.00 0.21 0.02 95 1011.5
20260507103923 55 321 3.5 7.8 0.00 0.21 0.02 95 1011.3
20260507103159 55 349 2.6 7.8 0.00 0.21 0.02 95 1011.1
20260507102659 55 15 2.6 4.3 0.00 0.21 0.02 95 1011.1
20260507102426 55 359 1.7 3.5 0.00 0.21 0.02 95 1011.3
20260507101700 55 289 2.6 4.3 0.00 0.21 0.02 95 1011.5
20260507101421 55 320 3.5 7.8 0.00 0.21 0.02 95 1011.4
20260507100657 55 3 4.3 7.8 0.00 0.21 0.02 95 1011.3
20260507100157 55 346 4.3 7.8 0.00 0.21 0.02 95 1011.2
20260507095916 55 351 4.3 7.8 0.00 0.21 0.02 95 1010.9
20260507095157 55 345 4.3 7.8 0.00 0.21 0.02 95 1011.1
20260507094656 55 320 5.2 7.8 0.00 0.21 0.02 94 1011.2
20260507094158 55 312 6.1 10.4 0.00 0.21 0.02 94 1011.2
20260507093655 56 10 5.2 10.4 0.00 0.21 0.02 94 1010.9
20260507093155 56 350 1.7 7.8 0.00 0.21 0.02 95 1010.8
20260507092938 56 43 1.7 5.2 0.00 0.21 0.02 95 1010.7
20260507092156 56 3 4.3 9.6 0.00 0.21 0.02 95 1011.0
20260507091655 56 25 5.2 9.6 0.01 0.21 0.02 94 1010.9
20260507091201 56 9 5.2 7.8 0.01 0.21 0.02 95 1010.9
20260507090654 56 20 5.2 7.8 0.01 0.21 0.02 95 1011.0
20260507090152 57 30 6.1 10.4 0.01 0.21 0.02 95 1011.1
20260507085659 57 25 6.1 10.4 0.01 0.21 0.02 95 1011.0
20260507085159 58 21 5.2 10.4 0.01 0.21 0.02 95 1010.9
20260507084703 58 17 5.2 8.7 0.01 0.21 0.02 95 1011.0
20260507084159 58 341 5.2 8.7 0.01 0.21 0.02 95 1010.8
20260507083657 59 3 5.2 8.7 0.01 0.21 0.02 95 1010.6
20260507083159 59 346 6.1 9.6 0.01 0.21 0.02 95 1010.5
20260507082655 59 359 5.2 9.6 0.01 0.21 0.02 95 1010.4
20260507082156 60 13 3.5 7.8 0.01 0.21 0.02 96 1010.4
20260507081655 61 347 2.6 4.3 0.00 0.20 0.01 96 1010.2
20260507081155 61 301 2.6 5.2 0.00 0.20 0.01 96 1010.7
20260507080650 61 303 2.6 5.2 0.00 0.20 0.01 96 1010.9
20260507080150 61 270 2.6 5.2 0.00 0.20 0.01 96 1010.9
20260507075649 61 259 2.6 5.2 0.00 0.20 0.01 96 1011.0
20260507075148 61 289 2.6 3.5 0.00 0.20 0.01 96 1010.8
20260507074648 61 303 1.7 5.2 0.00 0.20 0.01 96 1010.8
20260507074148 61 293 2.6 5.2 0.00 0.20 0.01 96 1010.7
20260507073645 61 303 3.5 8.7 0.00 0.20 0.01 96 1010.6
20260507073146 61 351 4.3 8.7 0.00 0.20 0.01 96 1010.7
20260507072642 62 281 2.6 8.7 0.00 0.20 0.01 96 1010.6
20260507072405 62 271 0.9 1.7 0.00 0.20 0.01 96 1010.6
20260507071642 62 283 0.9 2.6 0.00 0.20 0.01 96 1010.9
20260507071404 62 322 1.7 3.5 0.00 0.20 0.01 96 1010.8
20260507070648 62 278 2.6 3.5 0.00 0.20 0.01 96 1010.7
20260507070142 62 245 2.6 3.5 0.00 0.20 0.01 96 1011.1
20260507065908 62 249 2.6 3.5 0.00 0.20 0.01 96 1011.0
20260507065143 62 262 2.6 3.5 0.01 0.20 0.01 96 1011.0
20260507064643 62 271 2.6 3.5 0.01 0.20 0.01 96 1010.9
20260507064144 62 241 2.6 4.3 0.01 0.20 0.01 96 1010.9
20260507063643 62 229 2.6 4.3 0.01 0.20 0.01 96 1010.9
20260507063139 62 235 2.6 3.5 0.01 0.20 0.01 96 1010.9
20260507062639 62 249 2.6 5.2 0.01 0.20 0.01 96 1011.3
20260507062139 62 247 2.6 5.2 0.01 0.20 0.01 96 1011.4
20260507061636 62 289 1.7 4.3 0.01 0.20 0.01 96 1011.3
20260507061135 62 278 1.7 3.5 0.01 0.20 0.01 96 1011.4
20260507060634 62 322 1.7 3.5 0.01 0.20 0.01 96 1011.4
20260507060138 62 266 1.7 2.6 0.01 0.20 0.01 96 1011.6
20260507055632 62 266 1.7 2.6 0.01 0.20 0.01 96 1011.7
20260507055129 62 266 0.9 2.6 0.00 0.19 0.00 96 1011.6
20260507054629 61 236 0.9 2.6 0.00 0.19 0.00 96 1011.7
20260507054349 61 91 0.0 1.7 0.00 0.19 0.00 96 1011.5
20260507053622 61 91 0.0 1.7 0.00 0.19 0.00 96 1011.3
20260507053347 61 91 0.9 1.7 0.00 0.19 0.00 95 1011.5
20260507052618 62 91 0.9 1.7 0.00 0.19 0.00 95 1011.3
20260507052117 62 331 0.9 2.6 0.00 0.19 0.00 95 1011.5
20260507051615 62 14 1.7 3.5 0.00 0.19 0.00 95 1011.5
20260507051348 62 122 1.7 3.5 0.00 0.19 0.00 95 1011.5
20260507050614 62 149 2.6 3.5 0.00 0.19 0.00 95 1011.6
20260507050115 62 114 1.7 3.5 0.00 0.19 0.00 95 1011.5
20260507045619 62 104 0.9 2.6 0.00 0.19 0.00 95 1011.5
20260507045117 62 226 0.9 2.6 0.00 0.19 0.00 95 1012.0
20260507044613 62 238 0.9 2.6 0.00 0.19 0.00 95 1012.0
20260507044114 62 307 0.9 3.5 0.00 0.19 0.00 95 1012.0
20260507043612 62 307 1.7 4.3 0.00 0.19 0.00 95 1012.0
20260507043113 62 237 1.7 4.3 0.00 0.19 0.00 95 1012.4
20260507042612 62 195 1.7 4.3 0.00 0.19 0.00 95 1012.2
20260507042114 62 197 1.7 4.3 0.00 0.19 0.00 95 1012.3
20260507041613 62 209 1.7 4.3 0.00 0.19 0.00 95 1012.6
20260507041109 62 231 2.6 6.1 0.00 0.19 0.00 95 1012.4
20260507040605 62 212 3.5 6.1 0.00 0.19 0.00 95 1012.4
20260507040106 62 224 3.5 6.1 0.00 0.19 0.00 95 1012.6
20260507035602 62 222 3.5 7.0 0.00 0.19 0.19 95 1012.7
20260507035103 62 195 3.5 7.0 0.00 0.19 0.19 95 1012.7
20260507034602 62 154 3.5 7.0 0.00 0.19 0.19 95 1012.6
20260507034104 62 243 4.3 7.8 0.00 0.19 0.19 95 1012.7
20260507033602 62 179 3.5 7.8 0.00 0.19 0.19 95 1012.2
20260507033108 62 160 3.5 7.0 0.00 0.19 0.19 95 1012.3
20260507032611 62 193 2.6 6.1 0.00 0.19 0.19 95 1012.6
20260507032108 62 229 2.6 5.2 0.00 0.19 0.19 95 1013.0
20260507031606 62 211 2.6 5.2 0.00 0.19 0.19 95 1012.7
20260507031105 62 180 1.7 5.2 0.00 0.19 0.19 95 1012.7
20260507030817 62 170 1.7 3.5 0.00 0.19 0.19 95 1012.6
20260507030114 62 245 1.7 4.3 0.00 0.19 0.19 94 1012.7
20260507025557 62 221 0.9 4.3 0.01 0.19 0.19 94 1012.4
20260507025056 62 233 0.9 3.5 0.02 0.19 0.19 94 1012.3
20260507024557 62 233 0.9 3.5 0.02 0.19 0.19 94 1012.2
20260507024054 62 315 1.7 5.2 0.04 0.19 0.19 94 1012.4
20260507023552 62 181 3.5 6.1 0.05 0.19 0.19 94 1012.3
20260507023055 62 174 3.5 6.1 0.05 0.19 0.19 94 1012.1
20260507022556 62 172 2.6 4.3 0.05 0.19 0.19 94 1012.0
20260507022052 62 207 2.6 6.1 0.05 0.19 0.19 94 1012.1
20260507021554 62 203 1.7 6.1 0.05 0.19 0.19 94 1012.3
20260507021050 62 183 2.6 4.3 0.05 0.19 0.19 94 1012.3
20260507020548 62 166 1.7 4.3 0.06 0.19 0.19 94 1012.6
20260507020050 62 196 2.6 6.1 0.06 0.19 0.19 93 1012.8
20260507015550 62 206 3.5 9.6 0.05 0.18 0.18 93 1013.0
20260507015529 63 178 4.3 9.6 0.06 0.17 0.17 93 1013.7
20260507015444 62 189 4.3 9.6 0.05 0.17 0.17 93 1013.3
20260507014319 63 225 3.5 7.8 0.04 0.15 0.16 93 1013.6
20260507013545 63 231 3.5 7.0 0.04 0.14 0.14 93 1013.7
20260507013044 63 228 2.6 7.0 0.04 0.14 0.14 92 1013.6
20260507012546 63 196 2.6 6.1 0.04 0.14 0.14 92 1013.3
20260507012045 63 243 3.5 6.1 0.04 0.14 0.14 92 1013.2
20260507011543 63 193 3.5 6.1 0.05 0.14 0.14 92 1013.0
20260507011534 63 180 2.6 5.2 0.05 0.14 0.14 91 1012.8
20260507010544 63 225 3.5 6.1 0.04 0.13 0.13 91 1012.7
20260507010041 63 219 4.3 7.8 0.04 0.13 0.13 91 1012.6
20260507005540 64 208 4.3 7.8 0.04 0.13 0.13 90 1012.4
20260507005049 64 211 3.5 7.0 0.03 0.12 0.12 90 1012.4
20260507004544 64 175 3.5 7.0 0.02 0.11 0.11 89 1012.6
20260507004045 65 238 2.6 6.1 0.02 0.11 0.11 89 1012.9
20260507003540 65 220 3.5 7.0 0.01 0.10 0.10 88 1012.8
20260507003039 65 194 4.3 7.0 0.01 0.10 0.10 88 1012.7
20260507002802 65 264 3.5 7.0 0.01 0.10 0.10 88 1012.4
20260507002039 65 207 4.3 10.4 0.01 0.10 0.10 87 1012.0
20260507001538 65 179 5.2 10.4 0.00 0.09 0.09 87 1011.9
20260507001038 66 201 6.1 9.6 0.00 0.09 0.09 86 1011.7
20260507000539 66 196 6.1 13.0 0.00 0.09 0.09 86 1011.5
20260507000038 67 205 5.2 13.0 0.00 0.09 0.09 85 1011.6
20260506235539 67 201 4.3 8.7 0.00 0.09 0.09 85 1011.4